GW7344 Weather Reports


Display with metric or nautical units.
time (UTC)temp
F
wind
direction
speed
MPH
gust
MPH
rain 1hr
in
rain 24hr
in
rain mn
in
humidity
%
barometer
mb
20260504110532 47 360 0.0 0.0 0.00 0.12 0.00 65 1010.4
20260504100339 46 360 0.0 0.0 0.00 0.12 0.00 65 1010.4
20260504081608 46 180 0.0 0.0 0.00 0.12 0.00 64 1010.8
20260504081101 46 180 0.0 0.0 0.00 0.12 0.00 64 1010.8
20260504080558 46 180 0.0 0.0 0.00 0.12 0.00 65 1010.8
20260504070352 46 180 0.0 0.0 0.00 0.12 0.00 66 1010.8
20260504060217 45 180 0.0 0.0 0.00 0.12 0.00 66 1011.1
20260504050547 43 180 0.0 0.0 0.06 0.12 0.00 64 1011.5
20260504045544 43 180 0.0 0.0 0.08 0.12 0.00 67 1011.5
20260504045039 42 180 0.0 0.0 0.09 0.12 0.00 64 1011.5
20260504044536 42 180 0.0 0.0 0.09 0.12 0.00 65 1011.1
20260504044027 42 180 0.0 0.0 0.09 0.12 0.00 63 1011.5
20260504043527 42 180 0.0 0.0 0.09 0.12 0.00 63 1011.5
20260504043007 42 180 0.0 0.0 0.09 0.12 0.00 65 1011.5
20260504042504 42 180 0.0 0.0 0.07 0.09 0.00 62 1011.1
20260504042001 42 180 0.0 0.0 0.08 0.09 0.00 61 1011.5
20260504041451 42 180 0.0 0.0 0.05 0.06 0.00 63 1011.1
20260504040932 42 180 0.0 0.0 0.04 0.05 0.00 61 1011.1
20260504040418 42 180 0.0 0.0 0.03 0.04 0.00 61 1011.1
20260504035911 42 180 0.0 0.0 0.02 0.03 0.00 62 1011.1
20260504035400 43 180 0.0 0.0 0.02 0.03 0.00 60 1011.1
20260504034859 43 180 0.0 0.0 0.01 0.02 0.00 59 1011.1
20260504034349 43 180 0.0 0.0 0.01 0.02 0.00 60 1011.1
20260504033832 43 180 0.0 0.0 0.01 0.02 0.00 59 1011.1
20260504033314 43 180 0.0 0.0 0.01 0.02 0.00 58 1011.1
20260504032812 43 180 0.0 0.0 0.01 0.02 0.00 58 1011.1
20260504032259 44 180 0.0 0.0 0.01 0.02 0.00 57 1011.1
20260504031754 44 180 0.0 0.0 0.00 0.01 0.00 59 1011.1
20260504031247 44 180 0.0 0.0 0.00 0.01 0.00 58 1011.1
20260504030739 44 180 0.0 0.0 0.00 0.01 0.00 57 1011.1
20260504030226 44 180 0.0 0.0 0.00 0.01 0.00 55 1011.1
20260504025721 45 180 0.0 0.0 0.00 0.01 0.00 56 1011.1
20260504025211 45 180 0.0 0.0 0.00 0.01 0.00 56 1011.1
20260504024637 45 180 0.0 0.0 0.00 0.01 0.00 53 1011.1
20260504024133 46 180 0.0 0.0 0.00 0.01 0.00 53 1011.1
20260504023631 46 180 0.0 0.0 0.00 0.01 0.00 54 1011.1
20260504023111 46 180 0.0 0.0 0.00 0.01 0.00 53 1011.1
20260504022610 46 180 0.0 0.0 0.00 0.01 0.00 51 1011.1
20260504022102 46 180 0.0 0.0 0.00 0.01 0.00 52 1010.8
20260504021544 46 180 0.0 0.0 0.00 0.01 0.00 51 1010.8
20260504021036 47 180 0.0 0.0 0.00 0.01 0.00 50 1010.8
20260504020521 47 180 0.0 0.0 0.00 0.01 0.00 49 1010.8
20260504020007 47 180 0.0 0.0 0.00 0.01 0.00 49 1010.8
20260504015456 47 180 0.0 0.0 0.00 0.01 0.00 49 1010.4
20260504014955 48 180 0.0 0.0 0.00 0.01 0.00 51 1010.4
20260504014454 48 180 0.0 0.0 0.00 0.01 0.00 49 1010.4
20260504013951 48 180 0.0 0.0 0.00 0.01 0.00 46 1010.4
20260504013449 48 180 0.0 0.0 0.00 0.01 0.00 45 1010.4
20260504012944 49 180 0.0 0.0 0.00 0.01 0.00 44 1010.4
20260504012438 49 180 0.0 0.0 0.00 0.01 0.00 43 1010.1
20260504011921 49 180 0.0 0.0 0.00 0.01 0.00 42 1010.1
20260504011415 50 180 0.0 0.0 0.00 0.01 0.00 42 1010.1
20260504010911 50 180 0.0 0.0 0.00 0.01 0.00 41 1010.1
20260504010359 50 180 0.0 0.0 0.00 0.01 0.00 42 100.9
20260504005842 51 180 0.0 0.0 0.00 0.01 0.00 40 1010.1
20260504005329 51 180 0.0 0.0 0.00 0.01 0.00 38 1010.1
20260504004827 51 180 0.0 0.0 0.00 0.01 0.00 38 1010.1
20260504004322 51 180 0.0 0.0 0.00 0.01 0.00 37 1010.1
20260504003818 52 180 0.0 0.0 0.00 0.01 0.00 36 1010.1
20260504003307 52 180 0.0 0.0 0.00 0.01 0.00 35 1009.8
20260504002805 53 180 0.0 0.0 0.00 0.01 0.00 35 1010.1
20260504002301 53 180 0.0 0.0 0.00 0.01 0.00 34 1009.8
20260504001800 53 180 0.0 0.0 0.00 0.01 0.00 33 1009.8
20260504001252 54 180 0.0 0.0 0.00 0.01 0.00 32 1009.8
20260504000746 54 180 0.0 0.0 0.00 0.01 0.00 32 1010.1
20260504000234 55 180 0.0 0.0 0.00 0.01 0.00 31 1010.1
20260503235711 55 180 0.0 0.0 0.00 0.01 0.00 31 1009.8
20260503235200 56 180 0.0 0.0 0.00 0.01 0.00 30 1009.8
20260503234651 56 180 0.0 0.0 0.00 0.01 0.00 30 1009.8
20260503234142 57 180 0.0 0.0 0.00 0.01 0.00 30 1009.8
20260503233635 57 180 0.0 0.0 0.00 0.01 0.00 29 1009.8
20260503233131 58 180 0.0 0.0 0.00 0.01 0.00 28 1009.8
20260503232626 58 180 0.0 0.0 0.00 0.01 0.00 27 1009.8
20260503232124 58 180 0.0 1.0 0.00 0.01 0.00 27 1009.8
20260503231614 59 180 0.0 2.0 0.00 0.01 0.00 27 1009.4
20260503231058 59 137 0.0 1.0 0.00 0.01 0.00 27 1009.4
20260503230547 59 180 0.0 0.0 0.00 0.01 0.00 27 1009.4
20260503230046 59 180 0.0 1.0 0.00 0.01 0.00 26 1009.4
20260503225534 60 223 1.0 2.0 0.00 0.01 0.00 25 1009.4
20260503225021 60 226 2.0 4.0 0.00 0.01 0.00 24 1009.4
20260503224511 60 180 2.0 4.0 0.01 0.01 0.00 24 1009.4
20260503223956 60 180 1.0 2.0 0.01 0.01 0.00 26 1009.4
20260503223450 60 315 0.0 2.0 0.01 0.01 0.00 26 1009.4
20260503222945 60 180 0.0 2.0 0.01 0.01 0.00 26 1009.4
20260503222439 60 135 1.0 4.0 0.01 0.01 0.00 24 1009.4
20260503221818 61 170 0.0 1.0 0.01 0.01 0.00 26 1009.4
20260503221001 61 180 1.0 2.0 0.01 0.01 0.00 25 1009.4
20260503220650 61 180 0.0 4.0 0.01 0.01 0.00 24 1009.4
20260503220145 61 135 0.0 1.0 0.01 0.01 0.00 25 1009.8
20260503215720 62 273 0.0 1.0 0.01 0.01 0.00 25 1009.8
20260503215156 62 21 0.0 1.0 0.00 0.00 0.00 25 1009.8
20260503214412 62 140 1.0 4.0 0.00 0.00 0.00 24 1009.4
20260503213906 62 186 0.0 1.0 0.00 0.00 0.00 25 1009.8
20260503213355 62 135 0.0 1.0 0.00 0.00 0.00 24 1009.4
20260503212852 62 176 3.0 7.0 0.00 0.00 0.00 23 1009.8
20260503212344 62 180 1.0 8.0 0.00 0.00 0.00 23 1009.8
20260503211819 62 182 2.0 5.0 0.00 0.00 0.00 24 100.9
20260503211310 62 157 2.0 2.0 0.00 0.00 0.00 23 1009.8
20260503210754 62 180 2.0 5.0 0.00 0.00 0.00 24 1009.8
20260503210253 63 187 2.0 4.0 0.00 0.00 0.00 22 1009.8
20260503205745 63 186 2.0 4.0 0.00 0.00 0.00 23 1009.8
20260503205237 63 163 1.0 2.0 0.00 0.00 0.00 24 1009.8
20260503204731 63 180 1.0 4.0 0.00 0.00 0.00 26 1009.8
20260503204221 63 270 0.0 1.0 0.00 0.00 0.00 24 1009.8
20260503203713 63 177 2.0 4.0 0.00 0.00 0.00 25 1009.8
20260503203150 63 130 2.0 2.0 0.00 0.00 0.00 23 1010.1
20260503202645 63 186 4.0 5.0 0.00 0.00 0.00 22 1010.1
20260503202133 63 225 5.0 11.0 0.00 0.00 0.00 23 1009.8
20260503201607 64 203 1.0 5.0 0.00 0.00 0.00 24 1010.1
20260503201103 64 199 0.0 2.0 0.00 0.00 0.00 24 1010.1
20260503200539 64 112 0.0 4.0 0.00 0.00 0.00 24 1010.1
20260503200035 64 177 1.0 2.0 0.00 0.00 0.00 25 1010.1
20260503195533 65 175 4.0 5.0 0.00 0.00 0.00 25 100.9
20260503195014 65 106 0.0 4.0 0.00 0.00 0.00 26 1010.4
20260503194511 65 191 0.0 4.0 0.00 0.00 0.00 25 1010.8
20260503194003 65 135 0.0 4.0 0.00 0.00 0.00 24 1010.4
20260503193503 65 269 1.0 2.0 0.00 0.00 0.00 26 1010.8
20260503193000 65 150 2.0 4.0 0.00 0.00 0.00 25 1010.8
20260503192410 64 225 1.0 4.0 0.00 0.00 0.00 25 1010.8
20260503191853 64 186 3.0 7.0 0.00 0.00 0.00 23 101.2
20260503191348 65 178 3.0 5.0 0.00 0.00 0.00 23 1010.8
20260503190843 66 150 2.0 4.0 0.00 0.00 0.00 24 1011.1
20260503190332 66 140 1.0 2.0 0.00 0.00 0.00 23 1011.1
20260503185830 66 174 2.0 2.0 0.00 0.00 0.00 24 1011.1
20260503185329 66 225 0.0 4.0 0.00 0.00 0.00 25 1011.5
20260503184821 67 251 2.0 5.0 0.00 0.00 0.00 24 1011.5
20260503184306 66 202 1.0 4.0 0.00 0.00 0.00 24 1011.5
20260503183804 66 174 1.0 2.0 0.00 0.00 0.00 26 1011.5
20260503183246 65 187 1.0 7.0 0.00 0.00 0.00 29 1011.5
20260503182744 66 169 4.0 5.0 0.00 0.00 0.00 25 1011.5
20260503182232 65 218 2.0 5.0 0.00 0.00 0.00 25 1011.5
20260503181700 65 166 4.0 5.0 0.00 0.00 0.00 27 1011.5
20260503181145 64 146 1.0 1.0 0.00 0.00 0.00 25 1011.8
20260503180642 64 176 2.0 5.0 0.00 0.00 0.00 25 1011.5
20260503180135 65 176 1.0 2.0 0.00 0.00 0.00 28 1011.5
20260503175631 64 198 3.0 5.0 0.00 0.00 0.00 24 1011.8
20260503175123 65 178 2.0 10.0 0.00 0.00 0.00 27 1011.5
20260503174619 65 135 1.0 7.0 0.00 0.00 0.00 27 1011.8
20260503174055 65 153 2.0 8.0 0.00 0.00 0.00 25 1011.8
20260503173532 64 242 1.0 5.0 0.00 0.00 0.00 29 1012.1
20260503173018 63 189 3.0 7.0 0.00 0.00 0.00 27 1011.8
20260503172514 63 177 3.0 5.0 0.00 0.00 0.00 25 1011.8
20260503172000 63 220 0.0 0.0 0.00 0.00 0.00 27 1011.8
20260503171438 62 58 0.0 7.0 0.00 0.14 0.00 29 1011.8
20260503170919 62 180 2.0 4.0 0.00 0.14 0.00 29 1012.1
20260503170403 62 180 0.0 1.0 0.00 0.14 0.00 29 1012.1
20260503160202 59 191 1.0 5.0 0.00 0.14 0.00 27 1012.8
20260503150921 58 131 3.0 4.0 0.01 0.14 0.00 36 1013.2
20260503150407 57 124 2.0 5.0 0.01 0.14 0.00 30 1013.2
20260503131328 47 172 4.0 8.0 0.00 0.09 0.00 43 1013.5
20260503130824 47 198 2.0 7.0 0.00 0.09 0.00 44 1013.5
20260503130321 47 153 1.0 4.0 0.00 0.09 0.00 47 1013.5